AAL284 KSAN-KLAX

Flight info

Callsign AAL284
Flight time 0h 25m
Altitude 10000
Route CWARD2 SLI
Aircraft B738/M-SDE2E3FGHIRWXY/LB1

Departure

Time 2026-05-08 00:28
Airport San Diego International Airport (KSAN)

Arrival

Time 2026-05-08 00:53
Airport Los Angeles International Airport (KLAX)
Time Latitude Longitude Altitude Speed Heading
2026-05-08 00:06 32.73413 -117.20116 20 ft 0 kts 165°
2026-05-08 00:18 32.73416 -117.20117 20 ft 2 kts 163°
2026-05-08 00:18 32.73431 -117.20124 22 ft 2 kts 152°
2026-05-08 00:18 32.73445 -117.20134 23 ft 2 kts 139°
2026-05-08 00:19 32.73457 -117.20148 24 ft 2 kts 125°
2026-05-08 00:19 32.73465 -117.20165 21 ft 2 kts 111°
2026-05-08 00:19 32.73470 -117.20184 21 ft 2 kts 98°
2026-05-08 00:19 32.73471 -117.20203 22 ft 2 kts 86°
2026-05-08 00:20 32.73469 -117.20223 22 ft 2 kts 76°
2026-05-08 00:20 32.73464 -117.20241 22 ft 2 kts 62°
2026-05-08 00:20 32.73457 -117.20253 21 ft 1 kts 41°
2026-05-08 00:20 32.73456 -117.20255 22 ft 0 kts 33°
2026-05-08 00:22 32.73470 -117.20244 21 ft 7 kts 33°
2026-05-08 00:22 32.73527 -117.20175 22 ft 17 kts 61°
2026-05-08 00:22 32.73507 -117.20009 22 ft 26 kts 106°
2026-05-08 00:22 32.73455 -117.19795 24 ft 27 kts 105°
2026-05-08 00:23 32.73405 -117.19585 22 ft 26 kts 106°
2026-05-08 00:23 32.73357 -117.19389 21 ft 24 kts 106°
2026-05-08 00:23 32.73310 -117.19198 21 ft 24 kts 106°
2026-05-08 00:23 32.73266 -117.19015 21 ft 23 kts 105°
2026-05-08 00:24 32.73223 -117.18838 23 ft 22 kts 106°
2026-05-08 00:24 32.73179 -117.18658 25 ft 26 kts 106°
2026-05-08 00:24 32.73123 -117.18429 21 ft 29 kts 105°
2026-05-08 00:24 32.73069 -117.18203 20 ft 28 kts 106°
2026-05-08 00:25 32.73017 -117.17992 16 ft 26 kts 107°
2026-05-08 00:25 32.72968 -117.17795 15 ft 24 kts 105°
2026-05-08 00:25 32.72953 -117.17667 17 ft 6 kts 72°
2026-05-08 00:25 32.72954 -117.17665 17 ft 0 kts 71°
2026-05-08 00:26 32.72955 -117.17661 17 ft 3 kts 71°
2026-05-08 00:26 32.72973 -117.17603 20 ft 12 kts 65°
2026-05-08 00:27 32.73030 -117.17613 18 ft 13 kts 288°
2026-05-08 00:27 32.73092 -117.17869 18 ft 67 kts 286°
2026-05-08 00:27 32.73288 -117.18680 20 ft 135 kts 286°
2026-05-08 00:27 32.73604 -117.19957 171 ft 178 kts 287°
2026-05-08 00:28 32.73957 -117.21310 1279 ft 161 kts 293°
2026-05-08 00:28 32.74570 -117.22432 2064 ft 170 kts 305°
2026-05-08 00:28 32.75305 -117.23697 2354 ft 202 kts 304°
2026-05-08 00:28 32.76141 -117.25160 2557 ft 227 kts 304°
2026-05-08 00:29 32.77050 -117.26756 3004 ft 239 kts 304°
2026-05-08 00:29 32.78021 -117.28463 3370 ft 258 kts 304°
2026-05-08 00:29 32.79032 -117.30240 4159 ft 260 kts 304°
2026-05-08 00:29 32.80048 -117.32008 5091 ft 257 kts 306°
2026-05-08 00:30 32.81127 -117.33726 5839 ft 262 kts 308°
2026-05-08 00:30 32.82254 -117.35460 6568 ft 267 kts 308°
2026-05-08 00:30 32.83389 -117.37200 7236 ft 272 kts 308°
2026-05-08 00:30 32.84559 -117.38997 7939 ft 277 kts 308°
2026-05-08 00:31 32.85744 -117.40824 8659 ft 281 kts 309°
2026-05-08 00:31 32.86962 -117.42706 9378 ft 286 kts 309°
2026-05-08 00:31 32.88181 -117.44593 9876 ft 289 kts 309°
2026-05-08 00:31 32.89407 -117.46494 9958 ft 289 kts 309°
2026-05-08 00:32 32.90618 -117.48376 9985 ft 292 kts 309°
2026-05-08 00:32 32.91854 -117.50298 9982 ft 293 kts 309°
2026-05-08 00:32 32.93091 -117.52223 9985 ft 293 kts 309°
2026-05-08 00:32 32.94325 -117.54146 9988 ft 293 kts 309°
2026-05-08 00:33 32.95563 -117.56074 9986 ft 293 kts 309°
2026-05-08 00:33 32.96800 -117.58003 9985 ft 293 kts 309°
2026-05-08 00:33 32.98036 -117.59932 9983 ft 293 kts 309°
2026-05-08 00:33 32.99274 -117.61864 9987 ft 293 kts 309°
2026-05-08 00:34 33.00510 -117.63795 9982 ft 293 kts 309°
2026-05-08 00:34 33.01748 -117.65729 9977 ft 293 kts 309°
2026-05-08 00:34 33.03042 -117.67598 9967 ft 292 kts 321°
2026-05-08 00:34 33.04778 -117.68776 9994 ft 287 kts 339°
2026-05-08 00:35 33.06630 -117.69672 9983 ft 287 kts 340°
2026-05-08 00:35 33.08492 -117.70544 9984 ft 288 kts 340°
2026-05-08 00:35 33.10353 -117.71421 9977 ft 288 kts 340°
2026-05-08 00:35 33.12215 -117.72312 9976 ft 289 kts 340°
2026-05-08 00:36 33.14076 -117.73214 9979 ft 289 kts 340°
2026-05-08 00:36 33.15936 -117.74124 9976 ft 289 kts 340°
2026-05-08 00:36 33.17792 -117.75040 9976 ft 289 kts 339°
2026-05-08 00:36 33.19650 -117.75961 9973 ft 289 kts 339°
2026-05-08 00:37 33.21506 -117.76884 9974 ft 289 kts 339°
2026-05-08 00:37 33.23359 -117.77808 9973 ft 289 kts 339°
2026-05-08 00:37 33.25203 -117.78730 9963 ft 284 kts 339°
2026-05-08 00:38 33.28678 -117.80472 9949 ft 258 kts 339°
2026-05-08 00:38 33.30269 -117.81271 9952 ft 245 kts 339°
2026-05-08 00:38 33.31834 -117.82055 9971 ft 248 kts 339°
2026-05-08 00:38 33.33522 -117.82897 10005 ft 278 kts 339°
2026-05-08 00:39 33.35349 -117.83811 9982 ft 287 kts 339°
2026-05-08 00:39 33.37196 -117.84738 9979 ft 288 kts 339°
2026-05-08 00:39 33.39042 -117.85666 9965 ft 288 kts 339°
2026-05-08 00:39 33.40884 -117.86593 9962 ft 287 kts 339°
2026-05-08 00:40 33.42723 -117.87519 9959 ft 286 kts 339°
2026-05-08 00:40 33.44558 -117.88442 9958 ft 286 kts 339°
2026-05-08 00:40 33.46381 -117.89361 9956 ft 282 kts 339°
2026-05-08 00:40 33.48170 -117.90263 9958 ft 276 kts 339°
2026-05-08 00:41 33.49945 -117.91157 9649 ft 280 kts 338°
2026-05-08 00:41 33.51747 -117.92064 9257 ft 281 kts 338°
2026-05-08 00:41 33.53549 -117.92973 8855 ft 279 kts 338°
2026-05-08 00:41 33.55323 -117.93868 8452 ft 274 kts 337°
2026-05-08 00:42 33.57064 -117.94747 8104 ft 269 kts 337°
2026-05-08 00:42 33.58790 -117.95618 7795 ft 268 kts 336°
2026-05-08 00:42 33.60508 -117.96486 7486 ft 268 kts 336°
2026-05-08 00:42 33.62228 -117.97356 7179 ft 268 kts 336°
2026-05-08 00:43 33.63943 -117.98223 6873 ft 268 kts 335°
2026-05-08 00:43 33.65662 -117.99093 6595 ft 268 kts 335°
2026-05-08 00:43 33.67374 -117.99959 6349 ft 266 kts 335°
2026-05-08 00:43 33.69068 -118.00817 6110 ft 264 kts 335°
2026-05-08 00:44 33.70750 -118.01669 5852 ft 261 kts 335°
2026-05-08 00:44 33.72417 -118.02514 5603 ft 259 kts 335°
2026-05-08 00:44 33.74070 -118.03345 5336 ft 257 kts 337°
2026-05-08 00:44 33.75763 -118.04007 5101 ft 255 kts 340°
2026-05-08 00:45 33.77450 -118.04594 4977 ft 248 kts 341°
2026-05-08 00:45 33.79072 -118.05143 4943 ft 236 kts 341°
2026-05-08 00:45 33.80617 -118.05654 4931 ft 225 kts 341°
2026-05-08 00:45 33.82119 -118.06146 4935 ft 223 kts 341°
2026-05-08 00:46 33.83599 -118.06626 4941 ft 223 kts 341°
2026-05-08 00:46 33.85119 -118.07117 4954 ft 224 kts 341°
2026-05-08 00:46 33.86630 -118.07602 4951 ft 225 kts 341°
2026-05-08 00:46 33.88145 -118.08087 4955 ft 226 kts 341°
2026-05-08 00:47 33.89666 -118.08572 4939 ft 227 kts 341°
2026-05-08 00:47 33.91204 -118.09063 4567 ft 234 kts 341°
2026-05-08 00:47 33.92753 -118.09611 4199 ft 230 kts 332°
2026-05-08 00:47 33.93952 -118.10835 3805 ft 222 kts 300°
2026-05-08 00:48 33.94612 -118.12452 3591 ft 214 kts 292°
2026-05-08 00:48 33.95133 -118.13940 3565 ft 214 kts 291°
2026-05-08 00:48 33.95660 -118.15592 3534 ft 214 kts 282°
2026-05-08 00:48 33.95727 -118.17390 3448 ft 218 kts 269°
2026-05-08 00:49 33.95665 -118.19251 3177 ft 224 kts 266°
2026-05-08 00:49 33.95504 -118.21126 2875 ft 224 kts 263°
2026-05-08 00:49 33.95313 -118.22952 2610 ft 213 kts 263°
2026-05-08 00:49 33.95134 -118.24655 2346 ft 197 kts 263°
2026-05-08 00:50 33.94970 -118.26243 2095 ft 187 kts 263°
2026-05-08 00:50 33.94812 -118.27778 1837 ft 181 kts 263°
2026-05-08 00:50 33.94661 -118.29244 1608 ft 174 kts 263°
2026-05-08 00:50 33.94514 -118.30672 1374 ft 170 kts 263°
2026-05-08 00:51 33.94372 -118.32063 1153 ft 165 kts 262°
2026-05-08 00:51 33.94236 -118.33385 964 ft 153 kts 262°
2026-05-08 00:51 33.94110 -118.34613 743 ft 146 kts 261°
2026-05-08 00:51 33.93985 -118.35840 590 ft 145 kts 262°
2026-05-08 00:52 33.93859 -118.37060 339 ft 148 kts 261°
2026-05-08 00:52 33.93737 -118.38266 164 ft 143 kts 263°
2026-05-08 00:52 33.93623 -118.39387 107 ft 116 kts 263°
2026-05-08 00:52 33.93552 -118.40089 111 ft 53 kts 263°
2026-05-08 00:53 33.93535 -118.40377 111 ft 30 kts 270°
2026-05-08 00:53 33.93574 -118.40590 107 ft 24 kts 288°
2026-05-08 00:53 33.93595 -118.40736 105 ft 15 kts 265°
2026-05-08 00:53 33.93612 -118.40858 105 ft 15 kts 297°
2026-05-08 00:54 33.93704 -118.40902 106 ft 18 kts 352°
2026-05-08 00:54 33.93813 -118.40917 100 ft 13 kts 353°
2026-05-08 00:54 33.93866 -118.40898 96 ft 6 kts 60°
2026-05-08 00:54 33.93878 -118.40826 96 ft 11 kts 77°
2026-05-08 00:55 33.93917 -118.40755 96 ft 9 kts 41°
2026-05-08 00:55 33.93940 -118.40731 97 ft 1 kts 42°
2026-05-08 00:55 33.93947 -118.40724 98 ft 0 kts 43°